User: anonymous   Login
Location: Unspecified
(0.0000°N, 0.0000°E)
Time: 11:00:35
(UTC+00:00)
Language:

STARLINK-2605 - Orbit

View from above orbital plane
View from above orbital plane
View from above satellite
View from above satellite

Ground track
Ground track

The orbit is defined by the following mean orbital elements,

1 48392U          26145.54262148 +.00000000 +00000-0 +55910-4 0 00003
2 48392  53.1596 335.0962 0000884  83.6963 276.4139 15.31698782    02
Epoch (UTC): 25 May 2026 13:01:22
Eccentricity: 0.0000884
inclination: 53.1596°
perigee height: 470 km
apogee height: 471 km
right ascension of ascending node: 335.0962°
argument of perigee: 83.6963°
revolutions per day: 15.31698782
mean anomaly at epoch: 276.4139°

The dashed part of the orbit path shows where the satellite is in the earth's shadow,  

DLR